Regional Weather Roundup
Issued by NWS

Home | Current Version | Previous Version | Graphics & Text | Print | Product List | Glossary On
Versions: 1 2 3 4 5 6 7 8 9 10 11 12 13 14 15 16 17 18 19 20 21 22 23 24 25 26 27 28 29 30 31 32 33 34 35 36 37 38 39 40 41 42 43 44 45 46 47 48 49 50
000
ASUS44 KMEG 282300
RWRTN
TENNESSEE HOURLY STATE WEATHER ROUNDUP
NATIONAL WEATHER SERVICE MEMPHIS TN
600 PM CDT SAT MAY 28 2016

TNZ002-004-019-021-049-052-054-088>092-290000-
WEST TENNESSEE

CITY           SKY/WX    TMP DP  RH WIND       PRES   REMARKS
MEMPHIS INTL   CLOUDY    82  69  64 VRB5      30.01S
NWS MEMPHIS      N/A     83 N/A N/A MISG        N/A
JACKSON        LGT RAIN  77  69  76 S6        30.02S
DYERSBURG      CLOUDY    82  68  61 S6        30.01S
UNION CITY     SUNNY     84  70  61 S8        30.00S
PARIS          SUNNY     81  66  61 S6        30.03S
LEXINGTON      SUNNY     81  63  54 S7        30.02S
$$

TNZ008-025-027-028-033-062-065-066-290000-
NORTH MIDDLE TENNESSEE

CITY           SKY/WX    TMP DP  RH WIND       PRES   REMARKS
NASHVILLE      CLOUDY    82  61  48 S8        30.07F
CLARKSVILLE    SUNNY     81  66  60 S6        30.03F
COOKEVILLE     SUNNY     77  66  69 NW3       30.10S
CROSSVILLE     MOSUNNY   78  61  55 CALM      30.14S
$$

TNZ061-075-076-078-094-096-097-290000-
SOUTH MIDDLE TENNESSEE

CITY           SKY/WX    TMP DP  RH WIND       PRES   REMARKS
TULLAHOMA      SUNNY     73  70  88 CALM      30.11F
WINCHESTER     SUNNY     75  63  64 CALM      30.10F
MCMINNVILLE    SUNNY     73  66  78 CALM      30.11S
COLUMBIA       SUNNY     82  68  61 S7        30.06S
SHELBYVILLE    SUNNY     79  66  65 CALM      30.10S
$$

TNZ017-018-042-046-047-290000-
NORTHEAST TENNESSEE

CITY           SKY/WX    TMP DP  RH WIND       PRES   REMARKS
TRI CITIES     PTSUNNY   81  58  45 N5        30.12S
$$

TNZ012-013-036-069-073-074-290000-
CENTRAL EAST TENNESSEE

CITY           SKY/WX    TMP DP  RH WIND       PRES   REMARKS
KNOXVILLE      PTSUNNY   84  62  47 N6        30.08F
OAK RIDGE      SUNNY     83  60  45 CALM      30.10F
GATLINBURG     SUNNY     82  57  42 CALM      30.08F
$$

TNZ083-085-099-290000-
SOUTHEAST TENNESSEE

CITY           SKY/WX    TMP DP  RH WIND       PRES   REMARKS
CHATTANOOGA    MOSUNNY   86  53  32 S7        30.06F
$$

SKY/WX REPORTED AS FAIR MEANS FEW OR NO CLOUDS BELOW
12 THOUSAND FEET.




USA.gov is the U.S. government's official web portal to all federal, state and local government web resources and services.